TimeEST,TemperatureF,Dew PointF,Humidity,Sea Level PressureIn,VisibilityMPH,Wind Direction,Wind SpeedMPH,Gust SpeedMPH,PrecipitationIn,Events,Conditions,WindDirDegrees,DateUTC
12:29 AM,46.4,46.4,100,30.06,0.5,SSW,9.2,-,N/A,Fog,Fog,210,2013-01-14 05:29:00
12:53 AM,46.0,46.0,100,30.06,0.5,SW,6.9,-,N/A,Fog,Fog,220,2013-01-14 05:53:00
1:49 AM,46.4,46.4,100,30.06,0.8,SSW,9.2,-,N/A,,Overcast,200,2013-01-14 06:49:00
1:53 AM,46.9,46.9,100,30.06,0.8,SSW,8.1,-,N/A,,Overcast,200,2013-01-14 06:53:00
2:35 AM,46.4,46.4,100,30.06,0.5,South,8.1,-,N/A,Fog,Fog,190,2013-01-14 07:35:00
2:53 AM,46.9,46.9,100,30.05,0.5,South,11.5,-,N/A,Fog,Fog,180,2013-01-14 07:53:00
3:53 AM,46.9,46.9,100,30.03,0.8,SSW,10.4,-,N/A,,Mist,200,2013-01-14 08:53:00
4:06 AM,48.2,48.2,100,30.02,1.2,SSW,11.5,-,N/A,,Overcast,200,2013-01-14 09:06:00
4:13 AM,48.2,48.2,100,30.01,3.0,SSW,13.8,21.9,N/A,,Overcast,200,2013-01-14 09:13:00
4:23 AM,48.2,48.2,100,30.02,1.8,SSW,12.7,-,N/A,,Overcast,210,2013-01-14 09:23:00
4:31 AM,48.2,48.2,100,30.01,2.0,SSW,13.8,-,N/A,,Overcast,200,2013-01-14 09:31:00
4:39 AM,48.2,48.2,100,30.01,1.2,SSW,13.8,-,N/A,,Overcast,200,2013-01-14 09:39:00
4:51 AM,48.2,48.2,100,30.01,0.5,SSW,12.7,-,N/A,Fog,Fog,210,2013-01-14 09:51:00
4:53 AM,48.0,48.0,100,30.01,0.5,SSW,13.8,-,N/A,Fog,Fog,200,2013-01-14 09:53:00
5:44 AM,48.2,48.2,100,30.02,0.2,SSW,12.7,-,N/A,Fog,Fog,200,2013-01-14 10:44:00
5:53 AM,48.0,48.0,100,30.03,0.2,SSW,12.7,-,N/A,Fog,Fog,200,2013-01-14 10:53:00
6:53 AM,46.9,46.9,100,30.03,0.2,SSW,10.4,-,N/A,Fog,Fog,210,2013-01-14 11:53:00
7:53 AM,46.9,46.9,100,30.04,0.2,SW,8.1,-,N/A,Fog,Fog,220,2013-01-14 12:53:00
8:53 AM,46.9,46.9,100,30.03,0.2,SSW,11.5,-,N/A,Fog,Fog,200,2013-01-14 13:53:00
9:53 AM,50.0,50.0,100,29.97,0.2,South,18.4,24.2,N/A,Fog,Fog,190,2013-01-14 14:53:00
10:34 AM,48.2,48.2,100,29.99,0.2,SSW,13.8,-,N/A,Fog,Fog,210,2013-01-14 15:34:00
10:53 AM,48.9,48.9,100,30.01,0.2,WSW,16.1,-,N/A,Fog,Fog,240,2013-01-14 15:53:00
11:19 AM,48.2,48.2,100,30.02,0.2,WSW,13.8,-,N/A,Fog,Fog,240,2013-01-14 16:19:00
11:26 AM,48.2,48.2,100,30.03,0.2,WSW,15.0,-,N/A,Fog,Fog,250,2013-01-14 16:26:00
11:49 AM,51.8,51.8,100,30.01,0.5,WSW,12.7,-,N/A,Fog,Fog,240,2013-01-14 16:49:00
11:53 AM,51.1,51.1,100,30.01,0.5,WSW,10.4,-,N/A,Fog,Fog,240,2013-01-14 16:53:00
12:02 PM,48.2,48.2,100,29.99,0.2,SW,6.9,-,N/A,Fog,Fog,220,2013-01-14 17:02:00
12:12 PM,48.2,48.2,100,30.02,0.2,West,10.4,-,N/A,Fog,Fog,260,2013-01-14 17:12:00
12:53 PM,51.1,51.1,100,30.03,0.2,West,12.7,-,N/A,Fog,Fog,270,2013-01-14 17:53:00
12:55 PM,51.8,51.8,100,30.03,0.5,West,11.5,-,N/A,Fog,Fog,270,2013-01-14 17:55:00
1:53 PM,50.0,50.0,100,30.03,0.5,West,8.1,-,N/A,Fog,Fog,270,2013-01-14 18:53:00
2:27 PM,48.2,48.2,100,30.04,0.2,SW,6.9,-,N/A,Fog,Fog,230,2013-01-14 19:27:00
2:53 PM,46.0,46.0,100,30.04,0.2,SW,5.8,-,N/A,Fog,Fog,230,2013-01-14 19:53:00
3:37 PM,46.4,46.4,100,30.06,0.2,WSW,8.1,-,N/A,Fog,Fog,250,2013-01-14 20:37:00
3:53 PM,46.9,46.9,100,30.08,0.8,West,10.4,-,N/A,,Mist,270,2013-01-14 20:53:00
4:41 PM,46.4,46.4,100,30.09,2.5,West,6.9,-,N/A,,Overcast,260,2013-01-14 21:41:00
4:48 PM,46.4,46.4,100,30.08,4.0,WSW,6.9,-,N/A,,Overcast,240,2013-01-14 21:48:00
5:49 PM,46.4,46.4,100,30.11,3.0,West,8.1,-,N/A,,Overcast,260,2013-01-14 22:49:00
5:53 PM,46.9,46.9,100,30.11,4.0,West,8.1,-,N/A,,Overcast,270,2013-01-14 22:53:00
6:15 PM,46.4,46.4,100,30.10,4.0,West,4.6,-,N/A,,Overcast,260,2013-01-14 23:15:00
6:53 PM,48.0,48.0,100,30.11,7.0,WNW,5.8,-,N/A,,Mostly Cloudy,290,2013-01-14 23:53:00
7:53 PM,48.9,46.0,90,30.12,10.0,NW,5.8,-,N/A,,Overcast,320,2013-01-15 00:53:00
8:53 PM,48.0,41.0,77,30.15,10.0,NNW,10.4,-,N/A,,Mostly Cloudy,330,2013-01-15 01:53:00
9:53 PM,46.9,41.0,80,30.16,10.0,North,8.1,-,N/A,,Overcast,350,2013-01-15 02:53:00
10:53 PM,46.0,37.0,71,30.17,10.0,North,15.0,-,N/A,,Overcast,360,2013-01-15 03:53:00
11:53 PM,44.1,35.1,71,30.21,10.0,NNW,17.3,-,0.00,,Overcast,340,2013-01-15 04:53:00